CAPE
0 0 0 0 0 0 0 0 0 0 0 0 0 0 0 0 0 0 0 0 0 0 0 0 0 0 72 279 593 477 99 8 0 0 0 0 11 28 181 246 447 383 429 209 360
0 0 0 0 0 0 0 0 0 0 0 0 0 0 0 0 0 0 0 0 0 0 0 0 0 0 0 0 73 155 6 0 0 0 0 0 0 51 169 261 468 505 460 444 369
0 0 0 0 0 0 0 0 0 0 0 0 0 0 0 0 0 0 0 0 0 0 0 0 0 0 0 0 0 4 0 0 0 0 0 0 0 37 134 208 342 357 433 436 423
0 0 0 0 0 0 0 0 0 0 0 0 0 0 0 0 0 0 0 0 0 0 0 0 0 0 0 0 0 0 0 0 0 0 0 0 0 4 121 129 315 426 390 393 356
0 0 0 0 0 0 0 0 0 0 0 0 0 0 0 0 0 0 0 0 0 0 0 0 0 0 0 0 0 0 0 0 0 0 0 0 0 13 29 139 244 462 347 277 357
0 0 0 0 0 0 0 0 0 0 0 0 0 0 0 0 0 0 0 0 0 0 0 0 0 0 0 0 0 0 0 0 0 0 0 0 0 3 21 192 288 373 362 245 269
0 0 0 0 0 0 0 0 0 0 0 0 0 0 0 0 0 0 0 0 0 0 0 0 0 0 0 0 0 0 0 0 0 0 0 0 0 0 0 36 142 416 428 338 290
0 0 0 0 0 0 0 0 0 0 0 0 0 0 0 0 0 0 0 0 0 0 0 0 0 0 0 0 0 0 0 0 0 0 0 0 0 0 0 52 113 439 504 515 401
0 0 0 0 0 0 0 0 0 0 0 0 0 0 0 0 0 0 0 0 0 0 0 0 0 0 0 0 0 0 0 0 0 0 0 0 0 0 0 9 123 413 485 521 470
0 0 0 0 0 0 0 0 0 0 0 0 0 0 0 0 0 0 0 0 0 0 0 0 0 0 0 0 0 0 0 0 0 0 0 0 0 0 0 0 53 439 605 602 545
0 0 0 0 0 0 0 0 0 0 0 0 0 0 0 0 0 0 0 0 0 0 0 0 0 0 0 0 0 0 0 0 0 0 0 0 0 0 0 0 234 420 674 707 690
0 0 0 0 0 0 0 0 0 0 0 0 0 0 0 0 0 0 0 0 0 0 0 0 0 0 0 0 0 0 0 0 0 0 0 0 0 0 0 0 0 152 617 681 658
0 0 0 0 0 0 0 0 0 0 0 0 0 0 0 0 0 0 0 0 0 0 0 0 0 0 0 0 0 0 0 0 0 0 0 0 0 0 0 0 180 467 559 686 684
0 0 0 0 0 0 0 0 0 0 0 0 0 0 0 0 0 0 0 0 0 0 0 0 0 0 0 0 0 0 0 0 0 0 0 0 0 0 0 0 0 2 462 685 714
0 0 0 0 0 0 0 0 0 0 0 0 0 0 0 0 0 0 0 0 0 0 0 0 0 0 0 0 0 0 0 0 0 0 0 0 0 0 0 0 0 0 0 91 644
0 0 0 0 0 0 0 0 0 0 0 0 0 0 0 0 0 0 0 0 0 0 0 0 0 0 0 0 0 0 0 0 0 0 0 0 0 0 0 0 0 0 0 0 355
0 0 0 0 0 0 0 0 0 0 0 0 0 0 0 0 0 0 0 0 0 0 0 0 0 0 0 0 0 0 0 0 0 0 0 0 0 0 0 0 0 0 0 0 5
0 0 0 0 0 0 0 0 0 0 0 0 0 0 0 0 0 0 0 0 0 0 0 0 0 0 0 0 0 0 0 0 0 0 0 0 0 0 0 0 0 0 0 0 0
0 0 0 0 0 0 0 0 0 0 0 0 0 0 0 0 0 0 0 0 0 0 0 0 0 0 0 0 0 0 0 0 0 0 0 0 0 0 0 0 0 0 57 18 0
0 0 0 0 0 0 0 0 0 0 0 0 0 0 0 0 0 0 0 0 0 0 0 0 0 0 2 0 0 0 0 0 0 0 0 0 0 0 0 0 1 7 0 139 0
0 0 0 0 0 0 0 0 0 0 0 0 0 0 0 0 0 0 0 0 0 0 0 0 0 26 18 50 20 4 0 0 0 0 0 0 0 0 0 188 250 442 551 1097 677
0 0 0 0 0 0 0 0 0 0 0 0 0 0 0 0 0 0 0 0 0 5 0 0 0 35 72 42 29 45 5 0 0 0 0 0 0 79 341 515 449 706 1637 2362 2054
0 0 0 0 0 0 0 0 0 0 0 0 0 0 0 0 0 0 0 0 18 16 0 0 0 13 71 70 91 223 184 30 0 0 0 0 0 167 336 411 636 1160 1591 2004 2056
0 0 0 0 0 0 0 0 0 0 0 0 0 0 0 0 0 0 0 0 21 21 20 0 0 0 8 34 44 392 295 569 1 0 0 0 0 58 329 493 802 1237 1209 1239 1325
0 0 0 0 0 0 0 0 0 0 0 0 0 0 0 0 0 0 0 0 0 13 0 0 0 0 4 2 45 672 743 756 119 0 0 0 5 454 615 711 1091 855 716 550 677
0 0 0 0 0 0 0 0 0 0 0 0 0 0 0 0 0 0 0 0 0 0 0 0 0 0 0 1 24 104 117 28 737 608 747 608 558 899 751 1003 1155 1046 788 403 151
0 0 0 0 0 0 0 0 0 0 0 0 0 0 0 0 0 0 0 0 0 0 0 0 0 0 0 1 75 286 453 45 456 600 763 586 728 687 826 922 825 633 701 657 556
CIN
0 0 0 0 0 0 0 0 0 0 0 0 0 0 0 0 0 0 0 0 0 0 0 0 0 0 -685 -430 -301 -306 -269 -90 0 0 0 0 -87 -152 -233 -197 -205 -289 -266 -317 -436
0 0 0 0 0 0 0 0 0 0 0 0 0 0 0 0 0 0 0 0 0 0 0 0 0 0 0 0 -374 -298 -153 0 0 0 0 0 0 -133 -170 -159 -171 -261 -382 -442 -489
0 0 0 0 0 0 0 0 0 0 0 0 0 0 0 0 0 0 0 0 0 0 0 0 0 0 0 0 0 -54 0 0 0 0 0 0 0 -132 -178 -150 -142 -124 -300 -455 -484
0 0 0 0 0 0 0 0 0 0 0 0 0 0 0 0 0 0 0 0 0 0 0 0 0 0 0 0 0 0 0 0 0 0 0 0 0 -89 -161 -131 -155 -228 -368 -444 -494
0 0 0 0 0 0 0 0 0 0 0 0 0 0 0 0 0 0 0 0 0 0 0 0 0 0 0 0 0 0 0 0 0 0 0 0 0 -94 -95 -185 -252 -319 -472 -437 -456
0 0 0 0 0 0 0 0 0 0 0 0 0 0 0 0 0 0 0 0 0 0 0 0 0 0 0 0 0 0 0 0 0 0 0 0 0 -41 -77 -215 -267 -352 -354 -431 -472
0 0 0 0 0 0 0 0 0 0 0 0 0 0 0 0 0 0 0 0 0 0 0 0 0 0 0 0 0 0 0 0 0 0 0 0 0 0 0 -255 -292 -324 -355 -408 -465
0 0 0 0 0 0 0 0 0 0 0 0 0 0 0 0 0 0 0 0 0 0 0 0 0 0 0 0 0 0 0 0 0 0 0 0 0 0 0 -257 -299 -342 -365 -391 -432
0 0 0 0 0 0 0 0 0 0 0 0 0 0 0 0 0 0 0 0 0 0 0 0 0 0 0 0 0 0 0 0 0 0 0 0 0 0 0 -207 -332 -361 -353 -367 -402
0 0 0 0 0 0 0 0 0 0 0 0 0 0 0 0 0 0 0 0 0 0 0 0 0 0 0 0 0 0 0 0 0 0 0 0 0 0 0 0 -360 -318 -330 -352 -384
0 0 0 0 0 0 0 0 0 0 0 0 0 0 0 0 0 0 0 0 0 0 0 0 0 0 0 0 0 0 0 0 0 0 0 0 0 0 0 0 -259 -290 -287 -309 -336
0 0 0 0 0 0 0 0 0 0 0 0 0 0 0 0 0 0 0 0 0 0 0 0 0 0 0 0 0 0 0 0 0 0 0 0 0 0 0 0 0 -206 -263 -270 -359
0 0 0 0 0 0 0 0 0 0 0 0 0 0 0 0 0 0 0 0 0 0 0 0 0 0 0 0 0 0 0 0 0 0 0 0 0 0 0 0 -225 -237 -229 -258 -273
0 0 0 0 0 0 0 0 0 0 0 0 0 0 0 0 0 0 0 0 0 0 0 0 0 0 0 0 0 0 0 0 0 0 0 0 0 0 0 0 0 -70 -221 -238 -291
0 0 0 0 0 0 0 0 0 0 0 0 0 0 0 0 0 0 0 0 0 0 0 0 0 0 0 0 0 0 0 0 0 0 0 0 0 0 0 0 0 0 0 -222 -251
0 0 0 0 0 0 0 0 0 0 0 0 0 0 0 0 0 0 0 0 0 0 0 0 0 0 0 0 0 0 0 0 0 0 0 0 0 0 0 0 0 0 0 0 -227
0 0 0 0 0 0 0 0 0 0 0 0 0 0 0 0 0 0 0 0 0 0 0 0 0 0 0 0 0 0 0 0 0 0 0 0 0 0 0 0 0 0 0 0 -121
0 0 0 0 0 0 0 0 0 0 0 0 0 0 0 0 0 0 0 0 0 0 0 0 0 0 0 0 0 0 0 0 0 0 0 0 0 0 0 0 0 0 0 0 0
0 0 0 0 0 0 0 0 0 0 0 0 0 0 0 0 0 0 0 0 0 0 0 0 0 0 0 0 0 0 0 0 0 0 0 0 0 0 0 0 0 0 -169 -110 0
0 0 0 0 0 0 0 0 0 0 0 0 0 0 0 0 0 0 0 0 0 0 0 0 0 0 -37 0 0 0 0 0 0 0 0 0 0 0 0 0 -65 -113 0 -183 0
0 0 0 0 0 0 0 0 0 0 0 0 0 0 0 0 0 0 0 0 0 0 0 0 0 -86 -146 -65 -64 -44 0 0 0 0 0 0 0 0 0 -270 -228 -312 -317 -301 -384
0 0 0 0 0 0 0 0 0 0 0 0 0 0 0 0 0 0 0 0 0 -175 0 0 0 -94 -99 -117 -168 -175 -91 0 0 0 0 0 0 -291 -357 -441 -399 -363 -345 -267 -279
0 0 0 0 0 0 0 0 0 0 0 0 0 0 0 0 0 0 0 -6 -166 -135 0 0 0 -123 -76 -77 -120 -91 -129 -196 -49 0 0 0 0 -384 -438 -477 -428 -363 -322 -239 -222
0 0 0 0 0 0 0 0 0 0 0 0 0 0 0 0 0 0 0 0 -140 -112 -119 0 0 0 -136 -114 -154 -71 -85 -83 -85 0 0 0 0 -230 -384 -418 -330 -344 -362 -303 -307
0 0 0 0 0 0 0 0 0 0 0 0 0 0 0 0 0 0 0 0 -18 -114 0 -17 0 0 -152 -166 -154 -49 -81 -104 -114 0 0 0 -93 -279 -393 -350 -212 -363 -429 -445 -422
0 0 0 0 0 0 0 0 0 0 0 0 0 0 0 0 0 0 0 0 0 0 0 0 -1 0 -8 -52 -146 -93 -117 -68 -78 -166 -155 -168 -192 -258 -302 -187 -160 -253 -345 -485 -578
0 0 0 0 0 0 0 0 0 0 0 0 0 0 0 0 0 0 0 0 0 0 0 0 0 0 0 -138 -93 -46 -96 -25 -45 -192 -166 -91 -212 -248 -188 -160 -142 -191 -195 -264 -320
Wind_Speed
28 29 29 30 30 30 30 31 30 30 29 29 28 28 27 27 28 21 24 9 13 2 6 4 9 11 9 12 10 13 11 12 11 6 5 11 11 14 12 12 12 12 13 16 21
31 32 32 33 33 33 33 33 33 33 33 32 32 31 30 29 28 28 15 13 7 5 5 2 5 6 11 11 11 8 8 8 11 5 6 4 12 12 12 12 11 11 17 19 21
34 35 35 36 37 37 37 37 37 36 36 35 34 33 32 29 25 13 18 11 7 6 9 10 11 7 13 12 11 10 12 6 3 8 10 13 8 11 11 11 11 11 14 18 19
36 37 37 38 38 39 39 39 39 39 38 36 35 33 31 20 21 13 16 13 6 4 12 13 13 15 19 16 12 16 11 15 13 14 20 26 17 8 9 12 9 11 13 16 16
35 36 37 38 39 40 40 41 41 40 38 36 34 31 23 21 17 19 17 14 9 7 13 15 15 18 19 17 15 15 16 12 7 33 20 16 22 6 11 11 7 9 14 14 15
34 34 33 33 34 35 36 36 36 36 37 34 23 20 21 30 20 17 16 13 13 13 16 16 17 16 21 17 15 16 15 13 26 32 22 24 26 10 10 4 3 10 17 14 14
31 32 32 33 34 34 33 32 31 30 26 17 11 14 17 17 19 18 20 23 22 20 20 18 19 18 19 22 21 22 27 31 33 30 27 25 30 22 24 6 4 14 17 15 15
32 33 34 35 35 37 36 33 32 28 27 19 12 13 12 17 22 25 22 23 19 18 18 18 18 18 17 21 24 25 25 31 27 26 26 24 31 23 19 4 7 15 19 18 16
36 37 37 37 38 39 36 34 28 23 22 18 18 17 20 20 17 14 11 23 20 19 20 19 18 20 19 23 27 24 32 31 30 22 21 22 31 22 25 7 5 16 24 20 16
38 38 39 39 39 40 35 32 18 18 19 19 18 20 18 19 20 20 19 15 16 17 13 10 13 19 20 23 30 28 27 28 28 20 29 27 30 29 30 6 4 12 26 25 17
39 40 41 41 40 36 36 25 27 21 26 19 21 22 9 22 22 18 14 22 16 14 16 14 19 19 17 20 26 30 31 34 31 27 26 26 30 34 30 10 1 9 22 30 23
39 40 40 40 39 32 26 23 23 21 24 20 12 16 16 21 23 23 9 16 16 19 17 21 25 18 17 20 23 27 32 35 33 20 23 37 37 35 25 10 2 6 15 28 18
39 39 41 39 36 24 24 20 24 23 21 20 17 19 26 22 22 23 16 16 18 21 19 23 25 19 22 24 25 26 29 34 37 31 28 31 31 30 28 27 17 4 11 20 24
39 39 40 41 23 30 22 20 28 18 22 22 22 20 28 24 22 20 19 18 18 22 22 27 23 22 26 28 25 33 29 33 34 31 35 26 41 40 31 24 20 7 8 22 26
39 40 39 33 26 24 21 30 25 17 25 25 22 20 33 22 27 26 25 19 17 18 18 24 22 23 26 27 26 33 30 32 34 33 33 30 34 33 30 29 26 10 9 14 25
40 40 39 25 20 18 25 28 18 21 22 20 22 31 33 25 25 26 28 21 20 18 20 24 22 23 24 24 24 27 26 26 27 28 36 36 33 35 31 34 37 31 26 12 20
40 40 34 20 20 23 25 19 21 20 23 24 27 31 27 26 25 28 28 29 22 24 24 25 24 24 27 31 25 22 24 32 33 31 35 30 32 34 34 34 39 40 33 24 14
40 38 20 17 18 20 18 19 22 19 21 23 28 27 22 27 23 26 27 28 25 23 25 25 28 20 19 23 30 26 25 28 33 34 37 30 35 38 35 35 35 36 38 41 20
38 23 19 22 17 16 18 21 19 19 21 26 27 23 21 22 24 23 24 23 23 28 24 22 24 21 17 23 23 26 28 32 35 31 34 34 35 35 35 34 32 35 35 36 28
29 21 20 21 17 20 19 18 17 17 22 22 24 21 24 24 24 24 21 21 28 28 23 18 23 20 17 22 29 29 28 29 25 32 39 41 42 41 36 36 35 34 33 31 22
22 18 22 16 19 20 18 16 17 18 18 18 20 22 22 23 22 21 19 22 26 30 26 21 19 27 18 19 29 30 30 28 27 28 34 43 37 28 35 33 33 32 32 30 21
20 19 18 17 19 18 18 17 18 19 20 18 17 19 22 22 21 19 20 19 30 31 28 24 23 28 20 27 25 28 33 32 26 28 29 29 45 25 29 29 30 30 28 24 19
21 18 17 15 18 19 19 19 17 19 19 20 19 21 22 21 23 20 22 28 28 29 29 27 27 29 28 21 22 24 26 30 29 26 32 34 40 23 26 26 26 24 23 21 17
19 19 17 16 16 17 20 19 21 21 17 20 17 21 22 20 20 20 25 28 34 30 28 24 22 25 29 25 28 30 31 29 29 28 28 36 41 31 28 24 24 21 18 17 14
20 18 16 18 17 19 18 18 21 22 19 21 18 21 20 21 24 21 24 33 33 22 26 24 28 26 30 26 31 30 28 30 30 30 26 26 31 30 26 23 22 18 15 14 13
19 18 18 17 18 18 18 16 18 21 18 20 20 24 18 19 21 24 25 29 28 28 28 22 23 31 32 26 26 30 27 31 28 19 19 17 23 20 18 17 17 15 14 14 15
17 16 17 18 18 19 17 17 16 23 17 14 21 23 21 21 26 14 11 20 19 29 30 24 22 26 34 29 28 25 26 27 23 22 23 25 20 13 14 15 17 16 15 15 16
Wind_Direction
321 318 316 314 311 308 306 305 304 302 298 295 294 292 289 290 288 325 242 342 318 345 333 3 321 315 328 338 350 358 31 49 88 122 76 61 94 147 139 129 106 93 81 83 99
325 322 320 319 317 313 309 306 304 302 299 298 297 295 293 297 307 285 324 335 8 70 347 352 332 328 321 328 333 354 8 45 53 163 228 249 68 102 134 154 140 90 57 88 102
328 326 324 322 320 318 315 312 309 305 301 301 302 303 304 309 322 346 314 359 87 77 341 321 320 326 308 311 315 322 319 15 161 43 40 262 87 78 112 157 168 139 90 105 107
327 325 322 318 315 314 312 311 309 309 307 305 306 309 312 335 313 338 334 351 45 354 327 325 321 310 300 295 300 301 309 321 341 4 349 316 19 114 133 181 162 136 119 116 119
323 322 320 318 315 312 310 306 305 306 307 306 308 311 321 314 310 318 324 335 339 336 321 320 314 311 302 301 294 291 301 313 317 276 335 352 335 66 181 177 109 112 137 129 131
318 316 311 308 306 304 301 296 293 289 289 311 329 331 319 298 313 317 316 323 325 315 312 317 310 312 308 302 289 302 299 300 298 294 317 311 318 357 323 51 108 143 158 138 137
309 309 306 305 304 302 297 292 287 282 271 347 353 340 321 302 315 314 312 304 302 299 298 307 309 305 310 303 305 301 297 293 287 291 300 311 302 314 318 8 145 166 159 150 146
309 308 308 308 306 304 299 293 291 291 341 354 10 353 335 332 312 304 305 304 304 296 289 301 305 304 295 303 304 302 303 295 299 294 296 302 297 301 330 7 175 173 167 160 155
313 314 311 310 309 307 300 295 290 352 1 10 351 344 332 336 336 336 331 310 309 301 289 292 301 294 296 296 298 300 292 295 299 307 300 299 290 297 315 331 201 178 178 168 163
315 314 313 311 309 308 300 293 8 5 1 353 356 345 345 339 331 327 328 323 318 314 302 279 291 286 291 292 288 295 294 296 298 306 299 294 292 287 303 337 184 176 184 182 171
317 317 315 312 308 305 321 355 350 358 343 345 336 334 321 335 324 319 325 316 315 305 290 287 280 271 275 283 289 294 293 290 293 301 298 294 291 281 300 326 359 183 186 194 188
315 316 315 310 307 314 358 6 10 3 351 359 11 360 3 352 343 329 339 313 309 296 291 284 279 278 277 286 291 294 293 290 291 297 299 289 286 281 298 302 247 211 195 194 186
315 314 317 311 308 357 357 12 1 1 354 356 2 360 355 358 350 346 349 326 303 295 289 279 288 277 282 282 287 290 293 291 283 293 295 293 288 289 294 288 296 267 209 197 198
314 315 323 318 352 341 351 0 347 4 348 348 351 354 350 350 344 346 350 333 316 300 289 291 287 276 279 280 282 283 291 291 286 288 281 296 283 282 286 291 292 206 265 204 203
314 317 323 339 342 344 350 336 348 7 339 345 350 352 338 354 345 341 345 337 317 308 297 285 293 283 276 276 277 282 288 287 283 282 284 284 286 285 285 282 293 284 235 211 204
312 315 325 347 350 352 337 335 3 349 339 350 349 338 334 348 346 345 345 337 331 316 301 289 286 284 286 284 281 287 289 290 288 285 278 284 284 282 283 281 287 292 285 235 206
310 309 325 349 348 343 338 354 346 342 349 349 346 340 343 348 347 354 353 352 335 323 316 308 282 278 281 281 287 283 285 283 281 278 277 288 286 284 282 284 278 279 280 282 227
306 307 354 2 354 350 358 351 340 350 350 350 345 342 348 353 351 349 352 349 358 344 323 314 305 275 278 277 279 278 277 275 278 277 278 290 282 281 283 284 285 281 275 273 223
315 347 360 356 10 10 355 344 347 353 354 349 349 352 351 351 351 351 348 353 354 352 337 327 319 307 281 280 278 279 274 276 279 285 281 280 286 287 278 283 292 285 292 280 275
337 344 351 358 15 0 351 348 353 359 355 357 354 357 347 349 348 349 349 350 342 347 353 346 329 319 309 285 272 274 276 275 279 278 275 277 277 279 276 289 292 287 291 292 292
346 345 348 4 359 355 351 353 355 357 358 360 357 356 355 350 348 345 344 342 344 330 336 345 326 276 331 301 284 277 273 272 278 275 277 274 277 285 286 290 293 295 293 294 296
344 337 351 356 349 354 353 354 353 353 360 360 360 359 355 355 351 347 344 339 320 324 319 325 313 262 324 300 296 284 271 265 269 275 267 277 254 297 297 292 293 297 305 306 302
339 339 351 354 343 347 349 351 356 351 351 354 355 354 354 353 349 349 340 317 317 314 310 307 292 269 286 315 309 304 292 273 266 276 270 272 260 296 306 299 296 303 316 316 313
340 335 341 346 350 347 345 347 345 348 349 349 352 353 352 351 351 344 336 318 298 306 309 325 308 303 296 306 309 291 284 290 273 263 271 268 263 283 294 301 297 305 324 330 333
338 335 341 336 339 339 343 343 343 343 346 346 347 348 348 346 342 341 338 312 301 307 307 308 289 304 301 304 290 291 299 292 275 272 271 273 264 273 289 305 302 309 318 323 321
333 334 336 333 335 336 338 340 341 343 348 347 347 340 346 342 341 335 332 319 311 305 303 312 307 289 294 306 306 297 294 278 283 286 286 274 275 296 306 312 314 319 320 319 318
336 338 334 331 333 331 333 335 338 338 342 347 346 345 344 344 336 303 307 311 307 299 298 305 304 299 276 298 304 295 297 264 286 288 280 272 277 296 307 308 309 317 324 329 330